Index of /20260503/WXO-DD/model_caps/3km/12/003
Name Last modified Size Description
Parent Directory -
20260503T12Z_MSC_CAPS_AbsoluteVorticity_IsbL-0250_RLatLon0.03_PT003H.grib2 2026-05-03 18:07 1.0M
20260503T12Z_MSC_CAPS_AbsoluteVorticity_IsbL-0500_RLatLon0.03_PT003H.grib2 2026-05-03 18:07 1.1M
20260503T12Z_MSC_CAPS_AbsoluteVorticity_IsbL-0700_RLatLon0.03_PT003H.grib2 2026-05-03 18:07 1.4M
20260503T12Z_MSC_CAPS_AbsoluteVorticity_IsbL-0850_RLatLon0.03_PT003H.grib2 2026-05-03 18:07 1.2M
20260503T12Z_MSC_CAPS_AbsoluteVorticity_IsbL-1000_RLatLon0.03_PT003H.grib2 2026-05-03 18:07 1.4M
20260503T12Z_MSC_CAPS_AirDensity_AGL-120m_RLatLon0.03_PT003H.grib2 2026-05-03 18:07 1.4M
20260503T12Z_MSC_CAPS_AirDensity_AGL-40m_RLatLon0.03_PT003H.grib2 2026-05-03 18:07 1.4M
20260503T12Z_MSC_CAPS_AirDensity_AGL-80m_RLatLon0.03_PT003H.grib2 2026-05-03 18:07 1.4M
20260503T12Z_MSC_CAPS_AirTemp_AGL-120m_RLatLon0.03_PT003H.grib2 2026-05-03 18:07 1.4M
20260503T12Z_MSC_CAPS_AirTemp_AGL-2m_RLatLon0.03_PT003H.grib2 2026-05-03 18:07 1.7M
20260503T12Z_MSC_CAPS_AirTemp_AGL-40m_RLatLon0.03_PT003H.grib2 2026-05-03 18:07 1.5M
20260503T12Z_MSC_CAPS_AirTemp_AGL-80m_RLatLon0.03_PT003H.grib2 2026-05-03 18:07 1.4M
20260503T12Z_MSC_CAPS_AirTemp_IsbL-0050_RLatLon0.03_PT003H.grib2 2026-05-03 18:07 702K
20260503T12Z_MSC_CAPS_AirTemp_IsbL-0100_RLatLon0.03_PT003H.grib2 2026-05-03 18:07 960K
20260503T12Z_MSC_CAPS_AirTemp_IsbL-0150_RLatLon0.03_PT003H.grib2 2026-05-03 18:07 743K
20260503T12Z_MSC_CAPS_AirTemp_IsbL-0175_RLatLon0.03_PT003H.grib2 2026-05-03 18:07 762K
20260503T12Z_MSC_CAPS_AirTemp_IsbL-0200_RLatLon0.03_PT003H.grib2 2026-05-03 18:07 782K
20260503T12Z_MSC_CAPS_AirTemp_IsbL-0225_RLatLon0.03_PT003H.grib2 2026-05-03 18:07 788K
20260503T12Z_MSC_CAPS_AirTemp_IsbL-0250_RLatLon0.03_PT003H.grib2 2026-05-03 18:07 780K
20260503T12Z_MSC_CAPS_AirTemp_IsbL-0275_RLatLon0.03_PT003H.grib2 2026-05-03 18:07 1.0M
20260503T12Z_MSC_CAPS_AirTemp_IsbL-0300_RLatLon0.03_PT003H.grib2 2026-05-03 18:07 1.0M
20260503T12Z_MSC_CAPS_AirTemp_IsbL-0350_RLatLon0.03_PT003H.grib2 2026-05-03 18:07 751K
20260503T12Z_MSC_CAPS_AirTemp_IsbL-0400_RLatLon0.03_PT003H.grib2 2026-05-03 18:07 751K
20260503T12Z_MSC_CAPS_AirTemp_IsbL-0450_RLatLon0.03_PT003H.grib2 2026-05-03 18:07 765K
20260503T12Z_MSC_CAPS_AirTemp_IsbL-0500_RLatLon0.03_PT003H.grib2 2026-05-03 18:07 779K
20260503T12Z_MSC_CAPS_AirTemp_IsbL-0550_RLatLon0.03_PT003H.grib2 2026-05-03 18:07 948K
20260503T12Z_MSC_CAPS_AirTemp_IsbL-0600_RLatLon0.03_PT003H.grib2 2026-05-03 18:07 963K
20260503T12Z_MSC_CAPS_AirTemp_IsbL-0650_RLatLon0.03_PT003H.grib2 2026-05-03 18:07 1.0M
20260503T12Z_MSC_CAPS_AirTemp_IsbL-0700_RLatLon0.03_PT003H.grib2 2026-05-03 18:07 1.0M
20260503T12Z_MSC_CAPS_AirTemp_IsbL-0750_RLatLon0.03_PT003H.grib2 2026-05-03 18:07 1.0M
20260503T12Z_MSC_CAPS_AirTemp_IsbL-0800_RLatLon0.03_PT003H.grib2 2026-05-03 18:07 1.0M
20260503T12Z_MSC_CAPS_AirTemp_IsbL-0850_RLatLon0.03_PT003H.grib2 2026-05-03 18:07 1.1M
20260503T12Z_MSC_CAPS_AirTemp_IsbL-0875_RLatLon0.03_PT003H.grib2 2026-05-03 18:07 1.1M
20260503T12Z_MSC_CAPS_AirTemp_IsbL-0900_RLatLon0.03_PT003H.grib2 2026-05-03 18:07 1.1M
20260503T12Z_MSC_CAPS_AirTemp_IsbL-0925_RLatLon0.03_PT003H.grib2 2026-05-03 18:07 1.2M
20260503T12Z_MSC_CAPS_AirTemp_IsbL-0950_RLatLon0.03_PT003H.grib2 2026-05-03 18:07 1.1M
20260503T12Z_MSC_CAPS_AirTemp_IsbL-0970_RLatLon0.03_PT003H.grib2 2026-05-03 18:07 1.0M
20260503T12Z_MSC_CAPS_AirTemp_IsbL-0985_RLatLon0.03_PT003H.grib2 2026-05-03 18:07 1.0M
20260503T12Z_MSC_CAPS_AirTemp_IsbL-1000_RLatLon0.03_PT003H.grib2 2026-05-03 18:07 1.0M
20260503T12Z_MSC_CAPS_AirTemp_IsbL-1015_RLatLon0.03_PT003H.grib2 2026-05-03 18:07 1.1M
20260503T12Z_MSC_CAPS_Albedo_Sfc_RLatLon0.03_PT003H.grib2 2026-05-03 18:07 2.7M
20260503T12Z_MSC_CAPS_CAPE_Sfc_RLatLon0.03_PT003H.grib2 2026-05-03 18:07 173K
20260503T12Z_MSC_CAPS_CloudWater_EAtm_RLatLon0.03_PT003H.grib2 2026-05-03 18:07 1.3M
20260503T12Z_MSC_CAPS_ConvectivePrecip-Accum_Sfc_RLatLon0.03_PT003H.grib2 2026-05-03 18:07 1.2M
20260503T12Z_MSC_CAPS_DewPointDepression_AGL-120m_RLatLon0.03_PT003H.grib2 2026-05-03 18:07 1.9M
20260503T12Z_MSC_CAPS_DewPointDepression_AGL-2m_RLatLon0.03_PT003H.grib2 2026-05-03 18:07 2.1M
20260503T12Z_MSC_CAPS_DewPointDepression_AGL-40m_RLatLon0.03_PT003H.grib2 2026-05-03 18:07 2.0M
20260503T12Z_MSC_CAPS_DewPointDepression_AGL-80m_RLatLon0.03_PT003H.grib2 2026-05-03 18:07 2.0M
20260503T12Z_MSC_CAPS_DewPointDepression_IsbL-0050_RLatLon0.03_PT003H.grib2 2026-05-03 18:07 12K
20260503T12Z_MSC_CAPS_DewPointDepression_IsbL-0100_RLatLon0.03_PT003H.grib2 2026-05-03 18:07 94K
20260503T12Z_MSC_CAPS_DewPointDepression_IsbL-0150_RLatLon0.03_PT003H.grib2 2026-05-03 18:07 93K
20260503T12Z_MSC_CAPS_DewPointDepression_IsbL-0175_RLatLon0.03_PT003H.grib2 2026-05-03 18:07 215K
20260503T12Z_MSC_CAPS_DewPointDepression_IsbL-0200_RLatLon0.03_PT003H.grib2 2026-05-03 18:07 355K
20260503T12Z_MSC_CAPS_DewPointDepression_IsbL-0225_RLatLon0.03_PT003H.grib2 2026-05-03 18:07 601K
20260503T12Z_MSC_CAPS_DewPointDepression_IsbL-0250_RLatLon0.03_PT003H.grib2 2026-05-03 18:07 785K
20260503T12Z_MSC_CAPS_DewPointDepression_IsbL-0275_RLatLon0.03_PT003H.grib2 2026-05-03 18:07 924K
20260503T12Z_MSC_CAPS_DewPointDepression_IsbL-0300_RLatLon0.03_PT003H.grib2 2026-05-03 18:07 1.0M
20260503T12Z_MSC_CAPS_DewPointDepression_IsbL-0350_RLatLon0.03_PT003H.grib2 2026-05-03 18:07 1.0M
20260503T12Z_MSC_CAPS_DewPointDepression_IsbL-0400_RLatLon0.03_PT003H.grib2 2026-05-03 18:07 1.0M
20260503T12Z_MSC_CAPS_DewPointDepression_IsbL-0450_RLatLon0.03_PT003H.grib2 2026-05-03 18:07 1.0M
20260503T12Z_MSC_CAPS_DewPointDepression_IsbL-0500_RLatLon0.03_PT003H.grib2 2026-05-03 18:07 1.0M
20260503T12Z_MSC_CAPS_DewPointDepression_IsbL-0550_RLatLon0.03_PT003H.grib2 2026-05-03 18:07 1.1M
20260503T12Z_MSC_CAPS_DewPointDepression_IsbL-0600_RLatLon0.03_PT003H.grib2 2026-05-03 18:07 1.1M
20260503T12Z_MSC_CAPS_DewPointDepression_IsbL-0650_RLatLon0.03_PT003H.grib2 2026-05-03 18:07 1.2M
20260503T12Z_MSC_CAPS_DewPointDepression_IsbL-0700_RLatLon0.03_PT003H.grib2 2026-05-03 18:07 1.2M
20260503T12Z_MSC_CAPS_DewPointDepression_IsbL-0750_RLatLon0.03_PT003H.grib2 2026-05-03 18:07 1.2M
20260503T12Z_MSC_CAPS_DewPointDepression_IsbL-0800_RLatLon0.03_PT003H.grib2 2026-05-03 18:07 1.3M
20260503T12Z_MSC_CAPS_DewPointDepression_IsbL-0850_RLatLon0.03_PT003H.grib2 2026-05-03 18:07 1.3M
20260503T12Z_MSC_CAPS_DewPointDepression_IsbL-0875_RLatLon0.03_PT003H.grib2 2026-05-03 18:07 1.3M
20260503T12Z_MSC_CAPS_DewPointDepression_IsbL-0900_RLatLon0.03_PT003H.grib2 2026-05-03 18:07 1.3M
20260503T12Z_MSC_CAPS_DewPointDepression_IsbL-0925_RLatLon0.03_PT003H.grib2 2026-05-03 18:07 1.3M
20260503T12Z_MSC_CAPS_DewPointDepression_IsbL-0950_RLatLon0.03_PT003H.grib2 2026-05-03 18:07 1.3M
20260503T12Z_MSC_CAPS_DewPointDepression_IsbL-0970_RLatLon0.03_PT003H.grib2 2026-05-03 18:07 1.3M
20260503T12Z_MSC_CAPS_DewPointDepression_IsbL-0985_RLatLon0.03_PT003H.grib2 2026-05-03 18:07 1.3M
20260503T12Z_MSC_CAPS_DewPointDepression_IsbL-1000_RLatLon0.03_PT003H.grib2 2026-05-03 18:07 1.3M
20260503T12Z_MSC_CAPS_DewPointDepression_IsbL-1015_RLatLon0.03_PT003H.grib2 2026-05-03 18:07 1.3M
20260503T12Z_MSC_CAPS_DewPoint_AGL-120m_RLatLon0.03_PT003H.grib2 2026-05-03 18:07 3.5M
20260503T12Z_MSC_CAPS_DewPoint_AGL-2m_RLatLon0.03_PT003H.grib2 2026-05-03 18:07 1.8M
20260503T12Z_MSC_CAPS_DewPoint_AGL-40m_RLatLon0.03_PT003H.grib2 2026-05-03 18:07 3.6M
20260503T12Z_MSC_CAPS_DewPoint_AGL-80m_RLatLon0.03_PT003H.grib2 2026-05-03 18:07 3.6M
20260503T12Z_MSC_CAPS_DownwardLongwaveRadiationFlux-Accum_Sfc_RLatLon0.03_PT003H.grib2 2026-05-03 18:07 2.5M
20260503T12Z_MSC_CAPS_DownwardShortwaveRadiationFlux-Accum_NTAtm_RLatLon0.03_PT003H.grib2 2026-05-03 18:07 421K
20260503T12Z_MSC_CAPS_DownwardShortwaveRadiationFlux-Accum_Sfc_RLatLon0.03_PT003H.grib2 2026-05-03 18:07 1.9M
20260503T12Z_MSC_CAPS_FreezingRain-Accum_Sfc_RLatLon0.03_PT003H.grib2 2026-05-03 18:07 197K
20260503T12Z_MSC_CAPS_GeopotentialHeight_IsbL-0050_RLatLon0.03_PT003H.grib2 2026-05-03 18:07 649K
20260503T12Z_MSC_CAPS_GeopotentialHeight_IsbL-0100_RLatLon0.03_PT003H.grib2 2026-05-03 18:07 766K
20260503T12Z_MSC_CAPS_GeopotentialHeight_IsbL-0150_RLatLon0.03_PT003H.grib2 2026-05-03 18:07 720K
20260503T12Z_MSC_CAPS_GeopotentialHeight_IsbL-0175_RLatLon0.03_PT003H.grib2 2026-05-03 18:07 728K
20260503T12Z_MSC_CAPS_GeopotentialHeight_IsbL-0200_RLatLon0.03_PT003H.grib2 2026-05-03 18:07 745K
20260503T12Z_MSC_CAPS_GeopotentialHeight_IsbL-0225_RLatLon0.03_PT003H.grib2 2026-05-03 18:07 753K
20260503T12Z_MSC_CAPS_GeopotentialHeight_IsbL-0250_RLatLon0.03_PT003H.grib2 2026-05-03 18:07 766K
20260503T12Z_MSC_CAPS_GeopotentialHeight_IsbL-0275_RLatLon0.03_PT003H.grib2 2026-05-03 18:07 777K
20260503T12Z_MSC_CAPS_GeopotentialHeight_IsbL-0300_RLatLon0.03_PT003H.grib2 2026-05-03 18:07 781K
20260503T12Z_MSC_CAPS_GeopotentialHeight_IsbL-0350_RLatLon0.03_PT003H.grib2 2026-05-03 18:07 781K
20260503T12Z_MSC_CAPS_GeopotentialHeight_IsbL-0400_RLatLon0.03_PT003H.grib2 2026-05-03 18:07 775K
20260503T12Z_MSC_CAPS_GeopotentialHeight_IsbL-0450_RLatLon0.03_PT003H.grib2 2026-05-03 18:07 765K
20260503T12Z_MSC_CAPS_GeopotentialHeight_IsbL-0500_RLatLon0.03_PT003H.grib2 2026-05-03 18:07 759K
20260503T12Z_MSC_CAPS_GeopotentialHeight_IsbL-0550_RLatLon0.03_PT003H.grib2 2026-05-03 18:07 751K
20260503T12Z_MSC_CAPS_GeopotentialHeight_IsbL-0600_RLatLon0.03_PT003H.grib2 2026-05-03 18:07 632K
20260503T12Z_MSC_CAPS_GeopotentialHeight_IsbL-0650_RLatLon0.03_PT003H.grib2 2026-05-03 18:07 629K
20260503T12Z_MSC_CAPS_GeopotentialHeight_IsbL-0700_RLatLon0.03_PT003H.grib2 2026-05-03 18:07 630K
20260503T12Z_MSC_CAPS_GeopotentialHeight_IsbL-0750_RLatLon0.03_PT003H.grib2 2026-05-03 18:07 815K
20260503T12Z_MSC_CAPS_GeopotentialHeight_IsbL-0800_RLatLon0.03_PT003H.grib2 2026-05-03 18:07 819K
20260503T12Z_MSC_CAPS_GeopotentialHeight_IsbL-0850_RLatLon0.03_PT003H.grib2 2026-05-03 18:07 828K
20260503T12Z_MSC_CAPS_GeopotentialHeight_IsbL-0875_RLatLon0.03_PT003H.grib2 2026-05-03 18:07 834K
20260503T12Z_MSC_CAPS_GeopotentialHeight_IsbL-0900_RLatLon0.03_PT003H.grib2 2026-05-03 18:07 842K
20260503T12Z_MSC_CAPS_GeopotentialHeight_IsbL-0925_RLatLon0.03_PT003H.grib2 2026-05-03 18:07 852K
20260503T12Z_MSC_CAPS_GeopotentialHeight_IsbL-0950_RLatLon0.03_PT003H.grib2 2026-05-03 18:07 859K
20260503T12Z_MSC_CAPS_GeopotentialHeight_IsbL-0970_RLatLon0.03_PT003H.grib2 2026-05-03 18:07 875K
20260503T12Z_MSC_CAPS_GeopotentialHeight_IsbL-0985_RLatLon0.03_PT003H.grib2 2026-05-03 18:07 883K
20260503T12Z_MSC_CAPS_GeopotentialHeight_IsbL-1000_RLatLon0.03_PT003H.grib2 2026-05-03 18:07 891K
20260503T12Z_MSC_CAPS_GeopotentialHeight_IsbL-1015_RLatLon0.03_PT003H.grib2 2026-05-03 18:07 901K
20260503T12Z_MSC_CAPS_GeopotentialHeight_Sfc_RLatLon0.03_PT003H.grib2 2026-05-03 18:07 1.0M
20260503T12Z_MSC_CAPS_IcePellets-Accum_Sfc_RLatLon0.03_PT003H.grib2 2026-05-03 18:07 9.1K
20260503T12Z_MSC_CAPS_LatentHeatNetFlux_Sfc_RLatLon0.03_PT003H.grib2 2026-05-03 18:07 1.8M
20260503T12Z_MSC_CAPS_LiftedIndex-MU-VT_IsbL-0500_RLatLon0.03_PT003H.grib2 2026-05-03 18:07 3.4M
20260503T12Z_MSC_CAPS_MixedLayerThickness_Sfc_RLatLon0.03_PT003H.nc 2026-05-03 18:12 16M
20260503T12Z_MSC_CAPS_NetLongwaveRadiationFlux-Accum_Sfc_RLatLon0.03_PT003H.grib2 2026-05-03 18:07 2.8M
20260503T12Z_MSC_CAPS_NetShortwaveRadiationFlux-Accum_Sfc_RLatLon0.03_PT003H.grib2 2026-05-03 18:07 1.9M
20260503T12Z_MSC_CAPS_PlanetaryBoundaryLayerHeight_Sfc_RLatLon0.03_PT003H.grib2 2026-05-03 18:07 2.3M
20260503T12Z_MSC_CAPS_Precip-Accum_Sfc_RLatLon0.03_PT003H.grib2 2026-05-03 18:07 2.5M
20260503T12Z_MSC_CAPS_PrecipRate_Sfc_RLatLon0.03_PT003H.grib2 2026-05-03 18:07 322K
20260503T12Z_MSC_CAPS_PrecipType-Instant_Sfc_RLatLon0.03_PT003H.grib2 2026-05-03 18:07 1.2M
20260503T12Z_MSC_CAPS_Pressure_MSL_RLatLon0.03_PT003H.grib2 2026-05-03 18:07 777K
20260503T12Z_MSC_CAPS_Pressure_Sfc_RLatLon0.03_PT003H.grib2 2026-05-03 18:07 1.2M
20260503T12Z_MSC_CAPS_RadiativeTemp_Sfc_RLatLon0.03_PT003H.grib2 2026-05-03 18:07 2.1M
20260503T12Z_MSC_CAPS_Rain-Accum_Sfc_RLatLon0.03_PT003H.grib2 2026-05-03 18:07 930K
20260503T12Z_MSC_CAPS_RelativeHumidity_AGL-120m_RLatLon0.03_PT003H.grib2 2026-05-03 18:07 2.7M
20260503T12Z_MSC_CAPS_RelativeHumidity_AGL-2m_RLatLon0.03_PT003H.grib2 2026-05-03 18:07 2.9M
20260503T12Z_MSC_CAPS_RelativeHumidity_AGL-40m_RLatLon0.03_PT003H.grib2 2026-05-03 18:07 2.8M
20260503T12Z_MSC_CAPS_RelativeHumidity_AGL-80m_RLatLon0.03_PT003H.grib2 2026-05-03 18:07 2.7M
20260503T12Z_MSC_CAPS_RelativeHumidity_IsbL-0050_RLatLon0.03_PT003H.grib2 2026-05-03 18:07 716K
20260503T12Z_MSC_CAPS_RelativeHumidity_IsbL-0100_RLatLon0.03_PT003H.grib2 2026-05-03 18:07 841K
20260503T12Z_MSC_CAPS_RelativeHumidity_IsbL-0150_RLatLon0.03_PT003H.grib2 2026-05-03 18:07 484K
20260503T12Z_MSC_CAPS_RelativeHumidity_IsbL-0175_RLatLon0.03_PT003H.grib2 2026-05-03 18:07 460K
20260503T12Z_MSC_CAPS_RelativeHumidity_IsbL-0200_RLatLon0.03_PT003H.grib2 2026-05-03 18:07 617K
20260503T12Z_MSC_CAPS_RelativeHumidity_IsbL-0225_RLatLon0.03_PT003H.grib2 2026-05-03 18:07 829K
20260503T12Z_MSC_CAPS_RelativeHumidity_IsbL-0250_RLatLon0.03_PT003H.grib2 2026-05-03 18:07 1.0M
20260503T12Z_MSC_CAPS_RelativeHumidity_IsbL-0275_RLatLon0.03_PT003H.grib2 2026-05-03 18:07 1.3M
20260503T12Z_MSC_CAPS_RelativeHumidity_IsbL-0300_RLatLon0.03_PT003H.grib2 2026-05-03 18:07 1.4M
20260503T12Z_MSC_CAPS_RelativeHumidity_IsbL-0350_RLatLon0.03_PT003H.grib2 2026-05-03 18:07 1.9M
20260503T12Z_MSC_CAPS_RelativeHumidity_IsbL-0400_RLatLon0.03_PT003H.grib2 2026-05-03 18:07 1.8M
20260503T12Z_MSC_CAPS_RelativeHumidity_IsbL-0450_RLatLon0.03_PT003H.grib2 2026-05-03 18:07 1.9M
20260503T12Z_MSC_CAPS_RelativeHumidity_IsbL-0500_RLatLon0.03_PT003H.grib2 2026-05-03 18:07 1.8M
20260503T12Z_MSC_CAPS_RelativeHumidity_IsbL-0550_RLatLon0.03_PT003H.grib2 2026-05-03 18:07 2.0M
20260503T12Z_MSC_CAPS_RelativeHumidity_IsbL-0600_RLatLon0.03_PT003H.grib2 2026-05-03 18:07 2.0M
20260503T12Z_MSC_CAPS_RelativeHumidity_IsbL-0650_RLatLon0.03_PT003H.grib2 2026-05-03 18:07 2.2M
20260503T12Z_MSC_CAPS_RelativeHumidity_IsbL-0700_RLatLon0.03_PT003H.grib2 2026-05-03 18:07 2.2M
20260503T12Z_MSC_CAPS_RelativeHumidity_IsbL-0750_RLatLon0.03_PT003H.grib2 2026-05-03 18:07 2.2M
20260503T12Z_MSC_CAPS_RelativeHumidity_IsbL-0800_RLatLon0.03_PT003H.grib2 2026-05-03 18:07 2.3M
20260503T12Z_MSC_CAPS_RelativeHumidity_IsbL-0850_RLatLon0.03_PT003H.grib2 2026-05-03 18:07 2.3M
20260503T12Z_MSC_CAPS_RelativeHumidity_IsbL-0875_RLatLon0.03_PT003H.grib2 2026-05-03 18:07 2.5M
20260503T12Z_MSC_CAPS_RelativeHumidity_IsbL-0900_RLatLon0.03_PT003H.grib2 2026-05-03 18:07 2.5M
20260503T12Z_MSC_CAPS_RelativeHumidity_IsbL-0925_RLatLon0.03_PT003H.grib2 2026-05-03 18:07 2.6M
20260503T12Z_MSC_CAPS_RelativeHumidity_IsbL-0950_RLatLon0.03_PT003H.grib2 2026-05-03 18:07 2.6M
20260503T12Z_MSC_CAPS_RelativeHumidity_IsbL-0970_RLatLon0.03_PT003H.grib2 2026-05-03 18:07 2.7M
20260503T12Z_MSC_CAPS_RelativeHumidity_IsbL-0985_RLatLon0.03_PT003H.grib2 2026-05-03 18:07 2.8M
20260503T12Z_MSC_CAPS_RelativeHumidity_IsbL-1000_RLatLon0.03_PT003H.grib2 2026-05-03 18:07 2.8M
20260503T12Z_MSC_CAPS_RelativeHumidity_IsbL-1015_RLatLon0.03_PT003H.grib2 2026-05-03 18:07 2.9M
20260503T12Z_MSC_CAPS_Runoff-Accum_Sfc_RLatLon0.03_PT003H.grib2 2026-05-03 18:07 203K
20260503T12Z_MSC_CAPS_SeaIceAreaFraction_Sfc_RLatLon0.03_PT003H.nc 2026-05-03 18:12 15M
20260503T12Z_MSC_CAPS_SeaIceCompressiveStrength_Sfc_RLatLon0.03_PT003H.nc 2026-05-03 18:12 15M
20260503T12Z_MSC_CAPS_SeaIceDivergence_Sfc_RLatLon0.03_PT003H.nc 2026-05-03 18:12 15M
20260503T12Z_MSC_CAPS_SeaIceInternalPressure_Sfc_RLatLon0.03_PT003H.nc 2026-05-03 18:12 15M
20260503T12Z_MSC_CAPS_SeaIceShear_Sfc_RLatLon0.03_PT003H.nc 2026-05-03 18:12 15M
20260503T12Z_MSC_CAPS_SeaIceSnowTemp_Sfc_RLatLon0.03_PT003H.nc 2026-05-03 18:12 14M
20260503T12Z_MSC_CAPS_SeaIceSnowVolume_Sfc_RLatLon0.03_PT003H.nc 2026-05-03 18:12 15M
20260503T12Z_MSC_CAPS_SeaIceVelocityX_Sfc_RLatLon0.03_PT003H.nc 2026-05-03 18:12 15M
20260503T12Z_MSC_CAPS_SeaIceVelocityY_Sfc_RLatLon0.03_PT003H.nc 2026-05-03 18:12 15M
20260503T12Z_MSC_CAPS_SeaIceVolume_Sfc_RLatLon0.03_PT003H.nc 2026-05-03 18:12 15M
20260503T12Z_MSC_CAPS_SeaSurfaceHeight_Sfc_RLatLon0.03_PT003H.nc 2026-05-03 18:12 16M
20260503T12Z_MSC_CAPS_SeaWaterSalinity_DBS-0.5m_RLatLon0.03_PT003H.nc 2026-05-03 18:12 16M
20260503T12Z_MSC_CAPS_SeaWaterSalinity_DBS-all_RLatLon0.03_PT003H.nc 2026-05-03 18:12 107M
20260503T12Z_MSC_CAPS_SeaWaterTemp_DBS-0.5m_RLatLon0.03_PT003H.nc 2026-05-03 18:12 14M
20260503T12Z_MSC_CAPS_SeaWaterTemp_DBS-all_RLatLon0.03_PT003H.nc 2026-05-03 18:12 88M
20260503T12Z_MSC_CAPS_SeaWaterVelocityX_DBS-0.5m_RLatLon0.03_PT003H.nc 2026-05-03 18:12 18M
20260503T12Z_MSC_CAPS_SeaWaterVelocityX_DBS-all_RLatLon0.03_PT003H.nc 2026-05-03 18:12 210M
20260503T12Z_MSC_CAPS_SeaWaterVelocityY_DBS-0.5m_RLatLon0.03_PT003H.nc 2026-05-03 18:12 17M
20260503T12Z_MSC_CAPS_SeaWaterVelocityY_DBS-all_RLatLon0.03_PT003H.nc 2026-05-03 18:12 213M
20260503T12Z_MSC_CAPS_SensibleHeatNetFlux_Sfc_RLatLon0.03_PT003H.grib2 2026-05-03 18:07 2.1M
20260503T12Z_MSC_CAPS_ShowalterIndex_IsbL-0500_RLatLon0.03_PT003H.grib2 2026-05-03 18:07 4.3M
20260503T12Z_MSC_CAPS_Snow-Accum_Sfc_RLatLon0.03_PT003H.grib2 2026-05-03 18:07 1.8M
20260503T12Z_MSC_CAPS_SnowDensity_Sfc_RLatLon0.03_PT003H.grib2 2026-05-03 18:07 1.1M
20260503T12Z_MSC_CAPS_SnowDepthWaterEquivalent_Sfc_RLatLon0.03_PT003H.grib2 2026-05-03 18:07 656K
20260503T12Z_MSC_CAPS_SnowDepth_Sfc_RLatLon0.03_PT003H.grib2 2026-05-03 18:07 1.1M
20260503T12Z_MSC_CAPS_SoilTemp_DBS-0to10cm_RLatLon0.03_PT003H.grib2 2026-05-03 18:07 1.2M
20260503T12Z_MSC_CAPS_SoilTemp_Sfc_RLatLon0.03_PT003H.grib2 2026-05-03 18:07 1.9M
20260503T12Z_MSC_CAPS_SoilVolumetricIceContent_Sfc_RLatLon0.03_PT003H.grib2 2026-05-03 18:07 1.3M
20260503T12Z_MSC_CAPS_SoilVolumetricWaterContent_DBS-0to10cm_RLatLon0.03_PT003H.grib2 2026-05-03 18:07 1.2M
20260503T12Z_MSC_CAPS_SoilVolumetricWaterContent_DBS-0to1cm_RLatLon0.03_PT003H.grib2 2026-05-03 18:07 1.6M
20260503T12Z_MSC_CAPS_SpecificHumidity_AGL-120m_RLatLon0.03_PT003H.grib2 2026-05-03 18:07 1.7M
20260503T12Z_MSC_CAPS_SpecificHumidity_AGL-2m_RLatLon0.03_PT003H.grib2 2026-05-03 18:07 2.1M
20260503T12Z_MSC_CAPS_SpecificHumidity_AGL-40m_RLatLon0.03_PT003H.grib2 2026-05-03 18:07 1.8M
20260503T12Z_MSC_CAPS_SpecificHumidity_AGL-80m_RLatLon0.03_PT003H.grib2 2026-05-03 18:07 1.7M
20260503T12Z_MSC_CAPS_SpecificHumidity_IsbL-0050_RLatLon0.03_PT003H.grib2 2026-05-03 18:07 849K
20260503T12Z_MSC_CAPS_SpecificHumidity_IsbL-0100_RLatLon0.03_PT003H.grib2 2026-05-03 18:07 932K
20260503T12Z_MSC_CAPS_SpecificHumidity_IsbL-0150_RLatLon0.03_PT003H.grib2 2026-05-03 18:07 738K
20260503T12Z_MSC_CAPS_SpecificHumidity_IsbL-0175_RLatLon0.03_PT003H.grib2 2026-05-03 18:07 952K
20260503T12Z_MSC_CAPS_SpecificHumidity_IsbL-0200_RLatLon0.03_PT003H.grib2 2026-05-03 18:07 823K
20260503T12Z_MSC_CAPS_SpecificHumidity_IsbL-0225_RLatLon0.03_PT003H.grib2 2026-05-03 18:07 1.0M
20260503T12Z_MSC_CAPS_SpecificHumidity_IsbL-0250_RLatLon0.03_PT003H.grib2 2026-05-03 18:07 1.0M
20260503T12Z_MSC_CAPS_SpecificHumidity_IsbL-0275_RLatLon0.03_PT003H.grib2 2026-05-03 18:07 1.0M
20260503T12Z_MSC_CAPS_SpecificHumidity_IsbL-0300_RLatLon0.03_PT003H.grib2 2026-05-03 18:07 912K
20260503T12Z_MSC_CAPS_SpecificHumidity_IsbL-0350_RLatLon0.03_PT003H.grib2 2026-05-03 18:07 1.2M
20260503T12Z_MSC_CAPS_SpecificHumidity_IsbL-0400_RLatLon0.03_PT003H.grib2 2026-05-03 18:07 1.1M
20260503T12Z_MSC_CAPS_SpecificHumidity_IsbL-0450_RLatLon0.03_PT003H.grib2 2026-05-03 18:07 1.0M
20260503T12Z_MSC_CAPS_SpecificHumidity_IsbL-0500_RLatLon0.03_PT003H.grib2 2026-05-03 18:07 1.1M
20260503T12Z_MSC_CAPS_SpecificHumidity_IsbL-0550_RLatLon0.03_PT003H.grib2 2026-05-03 18:07 1.0M
20260503T12Z_MSC_CAPS_SpecificHumidity_IsbL-0600_RLatLon0.03_PT003H.grib2 2026-05-03 18:07 1.2M
20260503T12Z_MSC_CAPS_SpecificHumidity_IsbL-0650_RLatLon0.03_PT003H.grib2 2026-05-03 18:07 1.3M
20260503T12Z_MSC_CAPS_SpecificHumidity_IsbL-0700_RLatLon0.03_PT003H.grib2 2026-05-03 18:07 1.5M
20260503T12Z_MSC_CAPS_SpecificHumidity_IsbL-0750_RLatLon0.03_PT003H.grib2 2026-05-03 18:07 1.3M
20260503T12Z_MSC_CAPS_SpecificHumidity_IsbL-0800_RLatLon0.03_PT003H.grib2 2026-05-03 18:07 1.4M
20260503T12Z_MSC_CAPS_SpecificHumidity_IsbL-0850_RLatLon0.03_PT003H.grib2 2026-05-03 18:07 1.5M
20260503T12Z_MSC_CAPS_SpecificHumidity_IsbL-0875_RLatLon0.03_PT003H.grib2 2026-05-03 18:07 1.7M
20260503T12Z_MSC_CAPS_SpecificHumidity_IsbL-0900_RLatLon0.03_PT003H.grib2 2026-05-03 18:07 1.7M
20260503T12Z_MSC_CAPS_SpecificHumidity_IsbL-0925_RLatLon0.03_PT003H.grib2 2026-05-03 18:07 1.8M
20260503T12Z_MSC_CAPS_SpecificHumidity_IsbL-0950_RLatLon0.03_PT003H.grib2 2026-05-03 18:07 1.8M
20260503T12Z_MSC_CAPS_SpecificHumidity_IsbL-0970_RLatLon0.03_PT003H.grib2 2026-05-03 18:07 1.9M
20260503T12Z_MSC_CAPS_SpecificHumidity_IsbL-0985_RLatLon0.03_PT003H.grib2 2026-05-03 18:07 2.0M
20260503T12Z_MSC_CAPS_SpecificHumidity_IsbL-1000_RLatLon0.03_PT003H.grib2 2026-05-03 18:07 2.0M
20260503T12Z_MSC_CAPS_SpecificHumidity_IsbL-1015_RLatLon0.03_PT003H.grib2 2026-05-03 18:07 2.1M
20260503T12Z_MSC_CAPS_SpecificHumidity_Sfc_RLatLon0.03_PT003H.grib2 2026-05-03 18:07 2.0M
20260503T12Z_MSC_CAPS_StormRelativeHelicity_Sfc_RLatLon0.03_PT003H.grib2 2026-05-03 18:07 3.2M
20260503T12Z_MSC_CAPS_Thickness_IsbL-1000to0500_RLatLon0.03_PT003H.grib2 2026-05-03 18:07 475K
20260503T12Z_MSC_CAPS_TotalCloudCover_Sfc_RLatLon0.03_PT003H.grib2 2026-05-03 18:07 3.3M
20260503T12Z_MSC_CAPS_TurboclineDepth_Sfc_RLatLon0.03_PT003H.nc 2026-05-03 18:12 16M
20260503T12Z_MSC_CAPS_UpwardLongwaveRadiationFlux_NTAtm_RLatLon0.03_PT003H.grib2 2026-05-03 18:07 2.7M
20260503T12Z_MSC_CAPS_UpwardShortwaveRadiationFlux_NTAtm_RLatLon0.03_PT003H.grib2 2026-05-03 18:07 2.4M
20260503T12Z_MSC_CAPS_VerticalVelocity_IsbL-0250_RLatLon0.03_PT003H.grib2 2026-05-03 18:07 912K
20260503T12Z_MSC_CAPS_VerticalVelocity_IsbL-0500_RLatLon0.03_PT003H.grib2 2026-05-03 18:07 1.0M
20260503T12Z_MSC_CAPS_VerticalVelocity_IsbL-0700_RLatLon0.03_PT003H.grib2 2026-05-03 18:07 1.2M
20260503T12Z_MSC_CAPS_VerticalVelocity_IsbL-0850_RLatLon0.03_PT003H.grib2 2026-05-03 18:07 1.1M
20260503T12Z_MSC_CAPS_VerticalVelocity_IsbL-1000_RLatLon0.03_PT003H.grib2 2026-05-03 18:07 1.4M
20260503T12Z_MSC_CAPS_WindDir_AGL-10m_RLatLon0.03_PT003H.grib2 2026-05-03 18:07 2.4M
20260503T12Z_MSC_CAPS_WindDir_AGL-120m_RLatLon0.03_PT003H.grib2 2026-05-03 18:07 1.2M
20260503T12Z_MSC_CAPS_WindDir_AGL-40m_RLatLon0.03_PT003H.grib2 2026-05-03 18:07 1.4M
20260503T12Z_MSC_CAPS_WindDir_AGL-80m_RLatLon0.03_PT003H.grib2 2026-05-03 18:07 1.3M
20260503T12Z_MSC_CAPS_WindDir_IsbL-0050_RLatLon0.03_PT003H.grib2 2026-05-03 18:07 1.0M
20260503T12Z_MSC_CAPS_WindDir_IsbL-0100_RLatLon0.03_PT003H.grib2 2026-05-03 18:07 1.0M
20260503T12Z_MSC_CAPS_WindDir_IsbL-0150_RLatLon0.03_PT003H.grib2 2026-05-03 18:07 1.0M
20260503T12Z_MSC_CAPS_WindDir_IsbL-0175_RLatLon0.03_PT003H.grib2 2026-05-03 18:07 1.1M
20260503T12Z_MSC_CAPS_WindDir_IsbL-0200_RLatLon0.03_PT003H.grib2 2026-05-03 18:07 1.1M
20260503T12Z_MSC_CAPS_WindDir_IsbL-0225_RLatLon0.03_PT003H.grib2 2026-05-03 18:07 1.1M
20260503T12Z_MSC_CAPS_WindDir_IsbL-0250_RLatLon0.03_PT003H.grib2 2026-05-03 18:07 1.1M
20260503T12Z_MSC_CAPS_WindDir_IsbL-0275_RLatLon0.03_PT003H.grib2 2026-05-03 18:07 1.1M
20260503T12Z_MSC_CAPS_WindDir_IsbL-0300_RLatLon0.03_PT003H.grib2 2026-05-03 18:07 1.1M
20260503T12Z_MSC_CAPS_WindDir_IsbL-0350_RLatLon0.03_PT003H.grib2 2026-05-03 18:07 1.1M
20260503T12Z_MSC_CAPS_WindDir_IsbL-0400_RLatLon0.03_PT003H.grib2 2026-05-03 18:07 1.1M
20260503T12Z_MSC_CAPS_WindDir_IsbL-0450_RLatLon0.03_PT003H.grib2 2026-05-03 18:07 1.2M
20260503T12Z_MSC_CAPS_WindDir_IsbL-0500_RLatLon0.03_PT003H.grib2 2026-05-03 18:07 1.2M
20260503T12Z_MSC_CAPS_WindDir_IsbL-0550_RLatLon0.03_PT003H.grib2 2026-05-03 18:07 1.2M
20260503T12Z_MSC_CAPS_WindDir_IsbL-0600_RLatLon0.03_PT003H.grib2 2026-05-03 18:07 1.2M
20260503T12Z_MSC_CAPS_WindDir_IsbL-0650_RLatLon0.03_PT003H.grib2 2026-05-03 18:07 1.3M
20260503T12Z_MSC_CAPS_WindDir_IsbL-0700_RLatLon0.03_PT003H.grib2 2026-05-03 18:07 1.4M
20260503T12Z_MSC_CAPS_WindDir_IsbL-0750_RLatLon0.03_PT003H.grib2 2026-05-03 18:07 1.5M
20260503T12Z_MSC_CAPS_WindDir_IsbL-0800_RLatLon0.03_PT003H.grib2 2026-05-03 18:07 1.6M
20260503T12Z_MSC_CAPS_WindDir_IsbL-0850_RLatLon0.03_PT003H.grib2 2026-05-03 18:07 1.7M
20260503T12Z_MSC_CAPS_WindDir_IsbL-0875_RLatLon0.03_PT003H.grib2 2026-05-03 18:07 1.8M
20260503T12Z_MSC_CAPS_WindDir_IsbL-0900_RLatLon0.03_PT003H.grib2 2026-05-03 18:07 1.8M
20260503T12Z_MSC_CAPS_WindDir_IsbL-0925_RLatLon0.03_PT003H.grib2 2026-05-03 18:07 1.9M
20260503T12Z_MSC_CAPS_WindDir_IsbL-0950_RLatLon0.03_PT003H.grib2 2026-05-03 18:07 2.0M
20260503T12Z_MSC_CAPS_WindDir_IsbL-0970_RLatLon0.03_PT003H.grib2 2026-05-03 18:07 2.1M
20260503T12Z_MSC_CAPS_WindDir_IsbL-0985_RLatLon0.03_PT003H.grib2 2026-05-03 18:07 2.2M
20260503T12Z_MSC_CAPS_WindDir_IsbL-1000_RLatLon0.03_PT003H.grib2 2026-05-03 18:07 2.3M
20260503T12Z_MSC_CAPS_WindDir_IsbL-1015_RLatLon0.03_PT003H.grib2 2026-05-03 18:07 2.3M
20260503T12Z_MSC_CAPS_WindGust-Max_AGL-10m_RLatLon0.03_PT003H.grib2 2026-05-03 18:07 2.5M
20260503T12Z_MSC_CAPS_WindGust-Min_AGL-10m_RLatLon0.03_PT003H.grib2 2026-05-03 18:07 2.3M
20260503T12Z_MSC_CAPS_WindGust_AGL-10m_RLatLon0.03_PT003H.grib2 2026-05-03 18:07 2.5M
20260503T12Z_MSC_CAPS_WindSpeed_AGL-10m_RLatLon0.03_PT003H.grib2 2026-05-03 18:07 2.1M
20260503T12Z_MSC_CAPS_WindSpeed_AGL-120m_RLatLon0.03_PT003H.grib2 2026-05-03 18:07 1.1M
20260503T12Z_MSC_CAPS_WindSpeed_AGL-40m_RLatLon0.03_PT003H.grib2 2026-05-03 18:07 1.2M
20260503T12Z_MSC_CAPS_WindSpeed_AGL-80m_RLatLon0.03_PT003H.grib2 2026-05-03 18:07 1.2M
20260503T12Z_MSC_CAPS_WindSpeed_IsbL-0050_RLatLon0.03_PT003H.grib2 2026-05-03 18:07 950K
20260503T12Z_MSC_CAPS_WindSpeed_IsbL-0100_RLatLon0.03_PT003H.grib2 2026-05-03 18:07 1.0M
20260503T12Z_MSC_CAPS_WindSpeed_IsbL-0150_RLatLon0.03_PT003H.grib2 2026-05-03 18:07 1.1M
20260503T12Z_MSC_CAPS_WindSpeed_IsbL-0175_RLatLon0.03_PT003H.grib2 2026-05-03 18:07 1.2M
20260503T12Z_MSC_CAPS_WindSpeed_IsbL-0200_RLatLon0.03_PT003H.grib2 2026-05-03 18:07 939K
20260503T12Z_MSC_CAPS_WindSpeed_IsbL-0225_RLatLon0.03_PT003H.grib2 2026-05-03 18:07 1.0M
20260503T12Z_MSC_CAPS_WindSpeed_IsbL-0250_RLatLon0.03_PT003H.grib2 2026-05-03 18:07 969K
20260503T12Z_MSC_CAPS_WindSpeed_IsbL-0275_RLatLon0.03_PT003H.grib2 2026-05-03 18:07 1.0M
20260503T12Z_MSC_CAPS_WindSpeed_IsbL-0300_RLatLon0.03_PT003H.grib2 2026-05-03 18:07 1.0M
20260503T12Z_MSC_CAPS_WindSpeed_IsbL-0350_RLatLon0.03_PT003H.grib2 2026-05-03 18:07 1.0M
20260503T12Z_MSC_CAPS_WindSpeed_IsbL-0400_RLatLon0.03_PT003H.grib2 2026-05-03 18:07 1.0M
20260503T12Z_MSC_CAPS_WindSpeed_IsbL-0450_RLatLon0.03_PT003H.grib2 2026-05-03 18:07 1.0M
20260503T12Z_MSC_CAPS_WindSpeed_IsbL-0500_RLatLon0.03_PT003H.grib2 2026-05-03 18:07 1.4M
20260503T12Z_MSC_CAPS_WindSpeed_IsbL-0550_RLatLon0.03_PT003H.grib2 2026-05-03 18:07 1.4M
20260503T12Z_MSC_CAPS_WindSpeed_IsbL-0600_RLatLon0.03_PT003H.grib2 2026-05-03 18:07 1.4M
20260503T12Z_MSC_CAPS_WindSpeed_IsbL-0650_RLatLon0.03_PT003H.grib2 2026-05-03 18:07 1.4M
20260503T12Z_MSC_CAPS_WindSpeed_IsbL-0700_RLatLon0.03_PT003H.grib2 2026-05-03 18:07 1.5M
20260503T12Z_MSC_CAPS_WindSpeed_IsbL-0750_RLatLon0.03_PT003H.grib2 2026-05-03 18:07 1.5M
20260503T12Z_MSC_CAPS_WindSpeed_IsbL-0800_RLatLon0.03_PT003H.grib2 2026-05-03 18:07 1.6M
20260503T12Z_MSC_CAPS_WindSpeed_IsbL-0850_RLatLon0.03_PT003H.grib2 2026-05-03 18:07 1.7M
20260503T12Z_MSC_CAPS_WindSpeed_IsbL-0875_RLatLon0.03_PT003H.grib2 2026-05-03 18:07 1.7M
20260503T12Z_MSC_CAPS_WindSpeed_IsbL-0900_RLatLon0.03_PT003H.grib2 2026-05-03 18:07 1.8M
20260503T12Z_MSC_CAPS_WindSpeed_IsbL-0925_RLatLon0.03_PT003H.grib2 2026-05-03 18:07 1.8M
20260503T12Z_MSC_CAPS_WindSpeed_IsbL-0950_RLatLon0.03_PT003H.grib2 2026-05-03 18:07 1.9M
20260503T12Z_MSC_CAPS_WindSpeed_IsbL-0970_RLatLon0.03_PT003H.grib2 2026-05-03 18:07 2.0M
20260503T12Z_MSC_CAPS_WindSpeed_IsbL-0985_RLatLon0.03_PT003H.grib2 2026-05-03 18:07 2.0M
20260503T12Z_MSC_CAPS_WindSpeed_IsbL-1000_RLatLon0.03_PT003H.grib2 2026-05-03 18:07 2.0M
20260503T12Z_MSC_CAPS_WindSpeed_IsbL-1015_RLatLon0.03_PT003H.grib2 2026-05-03 18:07 2.1M
20260503T12Z_MSC_CAPS_WindU_AGL-10m_RLatLon0.03_PT003H.grib2 2026-05-03 18:07 1.9M
20260503T12Z_MSC_CAPS_WindU_AGL-120m_RLatLon0.03_PT003H.grib2 2026-05-03 18:07 912K
20260503T12Z_MSC_CAPS_WindU_AGL-40m_RLatLon0.03_PT003H.grib2 2026-05-03 18:07 1.2M
20260503T12Z_MSC_CAPS_WindU_AGL-80m_RLatLon0.03_PT003H.grib2 2026-05-03 18:07 1.2M
20260503T12Z_MSC_CAPS_WindU_IsbL-0050_RLatLon0.03_PT003H.grib2 2026-05-03 18:07 957K
20260503T12Z_MSC_CAPS_WindU_IsbL-0100_RLatLon0.03_PT003H.grib2 2026-05-03 18:07 813K
20260503T12Z_MSC_CAPS_WindU_IsbL-0150_RLatLon0.03_PT003H.grib2 2026-05-03 18:07 714K
20260503T12Z_MSC_CAPS_WindU_IsbL-0175_RLatLon0.03_PT003H.grib2 2026-05-03 18:07 852K
20260503T12Z_MSC_CAPS_WindU_IsbL-0200_RLatLon0.03_PT003H.grib2 2026-05-03 18:07 866K
20260503T12Z_MSC_CAPS_WindU_IsbL-0225_RLatLon0.03_PT003H.grib2 2026-05-03 18:07 889K
20260503T12Z_MSC_CAPS_WindU_IsbL-0250_RLatLon0.03_PT003H.grib2 2026-05-03 18:07 910K
20260503T12Z_MSC_CAPS_WindU_IsbL-0275_RLatLon0.03_PT003H.grib2 2026-05-03 18:07 919K
20260503T12Z_MSC_CAPS_WindU_IsbL-0300_RLatLon0.03_PT003H.grib2 2026-05-03 18:07 720K
20260503T12Z_MSC_CAPS_WindU_IsbL-0350_RLatLon0.03_PT003H.grib2 2026-05-03 18:07 733K
20260503T12Z_MSC_CAPS_WindU_IsbL-0400_RLatLon0.03_PT003H.grib2 2026-05-03 18:07 955K
20260503T12Z_MSC_CAPS_WindU_IsbL-0450_RLatLon0.03_PT003H.grib2 2026-05-03 18:07 967K
20260503T12Z_MSC_CAPS_WindU_IsbL-0500_RLatLon0.03_PT003H.grib2 2026-05-03 18:07 1.0M
20260503T12Z_MSC_CAPS_WindU_IsbL-0550_RLatLon0.03_PT003H.grib2 2026-05-03 18:07 897K
20260503T12Z_MSC_CAPS_WindU_IsbL-0600_RLatLon0.03_PT003H.grib2 2026-05-03 18:07 931K
20260503T12Z_MSC_CAPS_WindU_IsbL-0650_RLatLon0.03_PT003H.grib2 2026-05-03 18:07 1.2M
20260503T12Z_MSC_CAPS_WindU_IsbL-0700_RLatLon0.03_PT003H.grib2 2026-05-03 18:07 1.0M
20260503T12Z_MSC_CAPS_WindU_IsbL-0750_RLatLon0.03_PT003H.grib2 2026-05-03 18:07 1.3M
20260503T12Z_MSC_CAPS_WindU_IsbL-0800_RLatLon0.03_PT003H.grib2 2026-05-03 18:07 1.4M
20260503T12Z_MSC_CAPS_WindU_IsbL-0850_RLatLon0.03_PT003H.grib2 2026-05-03 18:07 1.2M
20260503T12Z_MSC_CAPS_WindU_IsbL-0875_RLatLon0.03_PT003H.grib2 2026-05-03 18:07 1.2M
20260503T12Z_MSC_CAPS_WindU_IsbL-0900_RLatLon0.03_PT003H.grib2 2026-05-03 18:07 1.3M
20260503T12Z_MSC_CAPS_WindU_IsbL-0925_RLatLon0.03_PT003H.grib2 2026-05-03 18:07 1.3M
20260503T12Z_MSC_CAPS_WindU_IsbL-0950_RLatLon0.03_PT003H.grib2 2026-05-03 18:07 1.3M
20260503T12Z_MSC_CAPS_WindU_IsbL-0970_RLatLon0.03_PT003H.grib2 2026-05-03 18:07 1.4M
20260503T12Z_MSC_CAPS_WindU_IsbL-0985_RLatLon0.03_PT003H.grib2 2026-05-03 18:07 1.4M
20260503T12Z_MSC_CAPS_WindU_IsbL-1000_RLatLon0.03_PT003H.grib2 2026-05-03 18:07 1.8M
20260503T12Z_MSC_CAPS_WindU_IsbL-1015_RLatLon0.03_PT003H.grib2 2026-05-03 18:07 1.9M
20260503T12Z_MSC_CAPS_WindV_AGL-10m_RLatLon0.03_PT003H.grib2 2026-05-03 18:07 1.9M
20260503T12Z_MSC_CAPS_WindV_AGL-120m_RLatLon0.03_PT003H.grib2 2026-05-03 18:07 904K
20260503T12Z_MSC_CAPS_WindV_AGL-40m_RLatLon0.03_PT003H.grib2 2026-05-03 18:07 1.2M
20260503T12Z_MSC_CAPS_WindV_AGL-80m_RLatLon0.03_PT003H.grib2 2026-05-03 18:07 1.2M
20260503T12Z_MSC_CAPS_WindV_IsbL-0050_RLatLon0.03_PT003H.grib2 2026-05-03 18:07 782K
20260503T12Z_MSC_CAPS_WindV_IsbL-0100_RLatLon0.03_PT003H.grib2 2026-05-03 18:07 1.0M
20260503T12Z_MSC_CAPS_WindV_IsbL-0150_RLatLon0.03_PT003H.grib2 2026-05-03 18:07 721K
20260503T12Z_MSC_CAPS_WindV_IsbL-0175_RLatLon0.03_PT003H.grib2 2026-05-03 18:07 855K
20260503T12Z_MSC_CAPS_WindV_IsbL-0200_RLatLon0.03_PT003H.grib2 2026-05-03 18:07 870K
20260503T12Z_MSC_CAPS_WindV_IsbL-0225_RLatLon0.03_PT003H.grib2 2026-05-03 18:07 680K
20260503T12Z_MSC_CAPS_WindV_IsbL-0250_RLatLon0.03_PT003H.grib2 2026-05-03 18:07 698K
20260503T12Z_MSC_CAPS_WindV_IsbL-0275_RLatLon0.03_PT003H.grib2 2026-05-03 18:07 709K
20260503T12Z_MSC_CAPS_WindV_IsbL-0300_RLatLon0.03_PT003H.grib2 2026-05-03 18:07 719K
20260503T12Z_MSC_CAPS_WindV_IsbL-0350_RLatLon0.03_PT003H.grib2 2026-05-03 18:07 732K
20260503T12Z_MSC_CAPS_WindV_IsbL-0400_RLatLon0.03_PT003H.grib2 2026-05-03 18:07 953K
20260503T12Z_MSC_CAPS_WindV_IsbL-0450_RLatLon0.03_PT003H.grib2 2026-05-03 18:07 964K
20260503T12Z_MSC_CAPS_WindV_IsbL-0500_RLatLon0.03_PT003H.grib2 2026-05-03 18:07 1.0M
20260503T12Z_MSC_CAPS_WindV_IsbL-0550_RLatLon0.03_PT003H.grib2 2026-05-03 18:07 896K
20260503T12Z_MSC_CAPS_WindV_IsbL-0600_RLatLon0.03_PT003H.grib2 2026-05-03 18:07 928K
20260503T12Z_MSC_CAPS_WindV_IsbL-0650_RLatLon0.03_PT003H.grib2 2026-05-03 18:07 967K
20260503T12Z_MSC_CAPS_WindV_IsbL-0700_RLatLon0.03_PT003H.grib2 2026-05-03 18:07 1.3M
20260503T12Z_MSC_CAPS_WindV_IsbL-0750_RLatLon0.03_PT003H.grib2 2026-05-03 18:07 1.0M
20260503T12Z_MSC_CAPS_WindV_IsbL-0800_RLatLon0.03_PT003H.grib2 2026-05-03 18:07 1.1M
20260503T12Z_MSC_CAPS_WindV_IsbL-0850_RLatLon0.03_PT003H.grib2 2026-05-03 18:07 1.2M
20260503T12Z_MSC_CAPS_WindV_IsbL-0875_RLatLon0.03_PT003H.grib2 2026-05-03 18:07 1.2M
20260503T12Z_MSC_CAPS_WindV_IsbL-0900_RLatLon0.03_PT003H.grib2 2026-05-03 18:07 1.3M
20260503T12Z_MSC_CAPS_WindV_IsbL-0925_RLatLon0.03_PT003H.grib2 2026-05-03 18:07 1.3M
20260503T12Z_MSC_CAPS_WindV_IsbL-0950_RLatLon0.03_PT003H.grib2 2026-05-03 18:07 1.3M
20260503T12Z_MSC_CAPS_WindV_IsbL-0970_RLatLon0.03_PT003H.grib2 2026-05-03 18:07 1.4M
20260503T12Z_MSC_CAPS_WindV_IsbL-0985_RLatLon0.03_PT003H.grib2 2026-05-03 18:07 1.4M
20260503T12Z_MSC_CAPS_WindV_IsbL-1000_RLatLon0.03_PT003H.grib2 2026-05-03 18:07 1.8M
20260503T12Z_MSC_CAPS_WindV_IsbL-1015_RLatLon0.03_PT003H.grib2 2026-05-03 18:07 1.8M